Location: Ku?niki
(51.4449°N, 17.8974°E)
Time: 01:33:25
(UTC+00:00)

NOSS 2-2 (E) - Pass Details

Date: 18 September 2020
Orbit: 468 x 1739 km, 63.3° (Epoch: 22 October)

Event Time Altitude Azimuth Distance (km) Brightness Sun altitude
Rises 19:13:46 0° 239° (WSW) 2,507 7.0 -21.3°
Reaches altitude 10° 19:15:47 10° 245° (WSW) 1,665 6.2 -21.5°
Maximum altitude 19:19:18 51° 323° (NW) 671 4.0 -22.0°
Drops below altitude 10° 19:23:33 10° 40° (NE) 2,002 6.1 -22.5°
Sets 19:26:12 0° 46° (NE) 3,087 7.0 -22.9°
